User: anonymous   Login
Location: Karaa?a�
(36.7158°N, 30.4165°E)
Time: 02:47:01
(UTC+00:00)
Language:

COSMOS 2455 - Orbit

View from above orbital plane
View from above orbital plane
View from above satellite
View from above satellite

Ground track
Ground track

The orbit data is extracted from the following two-line orbital elements,

1 36095U 09063A   20192.18219459 -.00000054  00000-0  15449-4 0  9991
2 36095  67.1483 123.8893 0008380 286.1843  73.8319 13.96768868542520
Epoch (UTC): 10 July 2020 04:22:21
Eccentricity: 0.0008380
inclination: 67.1483°
perigee height: 899 km
apogee height: 911 km
right ascension of ascending node: 123.8893°
argument of perigee: 286.1843°
revolutions per day: 13.96768868
mean anomaly at epoch: 73.8319°
orbit number at epoch: 54252

The dashed part of the orbit path shows where the satellite is in the earth's shadow,  

DLR